Location: Écuvilly
(49.6505°N, 2.9206°E)
Time: 00:43:00
(UTC+00:00)

Timation 1 Rocket - Pass Details

Date: 17 November 2025
Orbit: 898 x 905 km, 70.0° (Epoch: 13 December)

Event Time Altitude Azimuth Distance (km) Brightness Sun altitude
Rises 16:46:33 0° 330° (NNW) 3,528 7.5 -7.2°
Reaches altitude 10° 16:49:07 10° 335° (NNW) 2,585 6.8 -7.6°
Maximum altitude 16:55:00 57° 54° (NE) 1,057 4.4 -8.5°
Drops below altitude 10° 17:00:51 10° 132° (SE) 2,575 6.4 -9.4°
Sets 17:03:23 0° 137° (SE) 3,513 7.2 -9.8°
